Torna al catalogo

STARLINK-3642

AttivoComunicazioniVLEO
NORAD 51989·PAYLOAD·🇺🇸 United States

Lanciato Mar 9, 2022 da Cape Canaveral Space Force Station

Loading…

Prossimi Passaggi (prossime 24 ore)

TLE

AggiornatoSource: CelesTrak SupGP

Epoca: Sep 14, 2026, 21:06 UTC

1 51989C 22025AK  26257.87965278  .00044707  00000+0  13204-2 0  2577
2 51989  53.1568 253.9276 0001300  79.2796 119.9849 15.34380467    13

Traccia STARLINK-3642 in tempo reale con AllMySat

Download on the App Store